TimePST,TemperatureF,Dew PointF,Humidity,Sea Level PressureIn,VisibilityMPH,Wind Direction,Wind SpeedMPH,Gust SpeedMPH,PrecipitationIn,Events,Conditions,WindDirDegrees,DateUTC
12:40 AM,64.9,57.0,75,29.89,9.0,SE,11.5,-,0.00,Rain,Light Rain,140,2013-11-21 08:40:00
12:52 AM,64.0,57.0,78,29.90,5.0,SSE,11.5,-,0.00,Rain,Light Rain,150,2013-11-21 08:52:00
1:52 AM,63.0,57.9,84,29.88,5.0,SE,13.8,-,0.00,Rain,Light Rain,140,2013-11-21 09:52:00
2:30 AM,63.0,57.9,84,29.88,7.0,SSE,11.5,-,0.00,Rain,Light Rain,160,2013-11-21 10:30:00
2:52 AM,63.0,57.9,84,29.88,5.0,SSE,15.0,-,0.00,Rain,Light Rain,160,2013-11-21 10:52:00
3:52 AM,64.0,57.9,80,29.88,5.0,South,17.3,-,0.00,Rain,Light Rain,170,2013-11-21 11:52:00
4:52 AM,64.0,57.9,80,29.88,6.0,South,16.1,-,0.00,Rain,Light Rain,170,2013-11-21 12:52:00
5:52 AM,64.0,57.9,80,29.89,6.0,SW,9.2,-,0.02,Rain,Light Rain,230,2013-11-21 13:52:00
6:17 AM,64.0,57.9,80,29.90,10.0,SW,8.1,-,0.00,Rain,Light Rain,230,2013-11-21 14:17:00
6:28 AM,64.0,57.9,80,29.89,10.0,SW,6.9,-,0.00,,Mostly Cloudy,220,2013-11-21 14:28:00
6:52 AM,64.9,59.0,81,29.91,10.0,SW,8.1,-,0.00,,Mostly Cloudy,230,2013-11-21 14:52:00
7:52 AM,66.0,59.0,78,29.92,10.0,WSW,6.9,-,N/A,,Mostly Cloudy,240,2013-11-21 15:52:00
8:21 AM,66.0,59.0,78,29.91,6.0,WSW,9.2,-,N/A,,Haze,250,2013-11-21 16:21:00
8:33 AM,64.9,59.0,81,29.91,4.0,WSW,9.2,-,0.00,Rain,Light Rain,240,2013-11-21 16:33:00
8:52 AM,64.9,59.0,81,29.92,9.0,WSW,9.2,-,0.00,,Overcast,250,2013-11-21 16:52:00
9:52 AM,66.0,57.9,75,29.92,10.0,WSW,9.2,-,N/A,,Mostly Cloudy,240,2013-11-21 17:52:00
10:52 AM,68.0,57.0,68,29.92,10.0,WSW,10.4,-,N/A,,Mostly Cloudy,250,2013-11-21 18:52:00
11:52 AM,68.0,57.0,68,29.89,10.0,SSW,9.2,-,N/A,,Mostly Cloudy,210,2013-11-21 19:52:00
12:52 PM,66.0,57.0,73,29.88,10.0,WSW,10.4,-,N/A,,Overcast,240,2013-11-21 20:52:00
1:52 PM,66.0,57.0,73,29.88,9.0,WSW,10.4,-,N/A,,Overcast,240,2013-11-21 21:52:00
2:37 PM,64.9,55.9,73,29.88,1.8,Variable,3.5,-,0.03,Rain,Heavy Rain,0,2013-11-21 22:37:00
2:47 PM,64.4,57.2,77,29.88,3.0,SSW,3.5,-,0.03,Rain,Light Rain,200,2013-11-21 22:47:00
2:52 PM,64.9,57.0,75,29.88,10.0,SSW,5.8,-,0.03,,Mostly Cloudy,210,2013-11-21 22:52:00
3:52 PM,66.0,55.0,68,29.88,10.0,WSW,6.9,-,N/A,,Mostly Cloudy,240,2013-11-21 23:52:00
4:52 PM,64.9,54.0,68,29.87,10.0,SW,4.6,-,N/A,,Mostly Cloudy,230,2013-11-22 00:52:00
5:52 PM,64.0,55.0,73,29.88,10.0,SSW,4.6,-,N/A,,Mostly Cloudy,200,2013-11-22 01:52:00
6:52 PM,64.0,54.0,70,29.88,10.0,SW,3.5,-,N/A,,Mostly Cloudy,220,2013-11-22 02:52:00
7:52 PM,64.9,55.0,70,29.88,10.0,Calm,Calm,-,N/A,,Mostly Cloudy,0,2013-11-22 03:52:00
8:38 PM,63.0,55.0,75,29.88,4.0,West,5.8,-,0.03,Rain,Rain,260,2013-11-22 04:38:00
8:52 PM,63.0,55.9,78,29.88,3.0,WNW,5.8,-,0.08,Rain,Rain,300,2013-11-22 04:52:00
9:12 PM,62.1,55.9,80,29.88,2.0,Variable,3.5,-,0.19,Rain,Heavy Rain,0,2013-11-22 05:12:00
9:39 PM,62.1,55.9,80,29.88,3.0,Calm,Calm,-,0.39,Rain,Rain,0,2013-11-22 05:39:00
9:52 PM,62.1,55.9,80,29.88,3.0,North,3.5,-,0.49,Rain,Rain,10,2013-11-22 05:52:00
10:12 PM,62.1,55.0,78,29.87,9.0,Calm,Calm,-,0.00,,Mostly Cloudy,0,2013-11-22 06:12:00
10:52 PM,63.0,55.9,78,29.88,10.0,Calm,Calm,-,0.00,,Mostly Cloudy,0,2013-11-22 06:52:00
11:52 PM,61.0,55.0,81,29.86,8.0,Calm,Calm,-,N/A,,Mostly Cloudy,0,2013-11-22 07:52:00